Flag for U.S.A. Weather past 2 weeks in Baker Island, U.S.A.

Now
84 °F

Passing clouds.


Feels Like: 96 °F
Forecast: 81 / 86 °F
Wind: 18 mph from West

Location: Funafuti

Current Time: Jan 25, 2015 at 3:14:47 AM

Latest Report: Jan 25, 2015 at 1:00 AM


Visibility: N/A

Pressure: 29.74 "Hg

Humidity: 84%

Dew point: 79 °F

Location of Baker IslandLocation

Historic Weather in Baker Island — Graph

°F

Baker Island temperature yesterday

Maximum temperature yesterday: 90 °F (at 10:00 AM)
Minimum temperature yesterday: 81 °F (at 5:00 PM)
Average temperature yesterday: 86 °F

Past Weeks' High & Low Weather Summary

 TemperatureHumidityPressure
High91 °F (Jan 10, 11:00 AM)94% (Jan 16, 9:00 PM)29.92 "Hg (Jan 16, 9:00 PM)
Low79 °F (Jan 17, 3:00 PM)62% (Jan 18, 4:00 PM)29.65 "Hg (Jan 24, 4:00 PM)
Average85 °F79%29.79 "Hg
* Reported Jan 10 4:00 AM — Jan 25 1:00 AM, Baker Island, Weather by CustomWeather, © 2014

Note: Actual official high and low records may vary slightly from our data, if they occured in-between our weather recording intervals... More about our weather records

Advertising

Baker Island weather history for previous 24 hours

 ConditionsComfort  
Time TempWeatherWind HumidityBarometerVisibility
1:00 AM
Jan 25
84 °FPassing clouds.18 mph84%29.74 "HgN/A
12:00 AM86 °FPartly cloudy.17 mph79%29.71 "HgN/A
11:00 PM
Jan 24
84 °FScattered showers. Partly cloudy.16 mph84%29.71 "HgN/A
10:00 PM86 °FScattered showers. Partly cloudy.17 mph79%29.71 "HgN/A
9:00 PM84 °FScattered showers. Partly cloudy.15 mph89%29.71 "HgN/A
8:00 PM84 °FScattered showers. Partly cloudy.12 mph84%29.68 "HgN/A
7:00 PM84 °FScattered showers. Partly cloudy.14 mph84%29.68 "HgN/A
6:00 PM82 °FScattered showers. More clouds than sun.16 mph94%29.68 "HgN/A
5:00 PM81 °FSprinkles. Broken clouds.15 mph94%29.68 "HgN/A
4:00 PM88 °FScattered showers. Broken clouds.10 mph79%29.65 "HgN/A
3:00 PM90 °FScattered showers. Broken clouds.12 mph71%29.68 "HgN/A
2:00 PM88 °FScattered showers. Broken clouds.15 mph79%29.68 "HgN/A
1:00 PM86 °FScattered showers. Broken clouds.10 mph84%29.71 "HgN/A
12:00 PM90 °FScattered showers. Broken clouds.14 mph75%29.74 "HgN/A
11:00 AM88 °FBroken clouds.9 mph79%29.74 "HgN/A
10:00 AM90 °FPartly sunny.12 mph71%29.74 "HgN/A
9:00 AM88 °FPartly sunny.10 mph75%29.74 "HgN/A
8:00 AM88 °FPartly sunny.13 mph70%29.77 "HgN/A
6:00 AM86 °FBroken clouds.12 mph79%29.74 "HgN/A
5:00 AM86 °FScattered showers. Partly cloudy.12 mph75%29.74 "HgN/A
4:00 AM86 °FScattered showers. Partly cloudy.14 mph79%29.71 "HgN/A
3:00 AM86 °FScattered showers. Partly cloudy.14 mph79%29.71 "HgN/A
Weather by CustomWeather, © 2014

See weather overviewHow to use our weather pages